Location: Killam
(52.7910°N, 111.8608°W)
Time: 16:33:02
(UTC+00:00)

Vanguard 2 Rocket - Pass Details

Date: 18 February 2026
Orbit: 553 x 3286 km, 32.9° (Epoch: 11 March)

Event Time Altitude Azimuth Distance (km) Brightness Sun altitude
Rises 17:32:45 0° 193° (SSW) 7,221 12.1 20.1°
Reaches altitude 10° 17:40:34 10° 177° (S) 6,205 12.4 20.8°
Maximum altitude 17:50:29 17° 146° (SE) 5,368 13.6 21.5°
Drops below altitude 10° 17:59:14 10° 114° (ESE) 5,421 11.8 22.1°
Sets 18:05:06 0° 96° (E) 5,960 11.5 22.5°
